Regional Weather Roundup
Issued by NWS

Home | Current Version | Previous Version | Text Only | Print | Product List | Glossary On
Versions: 1 2 3 4 5 6 7 8 9 10 11 12 13 14 15 16 17 18 19 20 21 22 23 24 25 26 27 28 29 30 31 32 33 34 35 36 37 38 39 40 41 42 43 44 45 46 47 48 49 50
176
ASUS44 KLIX 250110
RWRLA
LOUISIANA WEATHER ROUNDUP
NATIONAL WEATHER SERVICE NEW ORLEANS LA
800 PM CDT FRI OCT 24 2014

NOTE: "FAIR" INDICATES FEW OR NO CLOUDS BELOW 12,000 FEET WITH NO
      SIGNIFICANT WEATHER AND/OR OBSTRUCTIONS TO VISIBILITY.
      SKY/WX - SKY CONDITION AND SIGNIFICANT WEATHER.
      TMP - AIR TEMPERATURE.    DP   - DEWPOINT TEMPERATURE.
      RH  - RELATIVE HUMIDITY.  PRES - PRESSURE.
      HX  - HEAT INDEX.         WCI  - WIND CHILL INDEX.

*  THESE STATIONS ARE NOT NWS OR FAA STATIONS AND ARE NOT UNDER
   NWS QUALITY CONTROL.

LAZ040-048-061>063-065-066-069-250200-
SOUTHEAST LOUISIANA

CITY           SKY/WX    TMP DP  RH WIND       PRES   REMARKS
N.O. AUDUBON     N/A     66  52  61 MISG        N/A
N.O. INTL ARPT CLEAR     69  48  47 N7        30.08R
N.O. LAKEFRONT CLEAR     71  56  58 N9        30.08R
N.O. DOWNTOWN* FAIR      72  46  40 N7        30.08R
SLIDELL        CLEAR     58  53  84 N3        30.07R
BATON ROUGE    PTCLDY    60  50  69 NW3       30.09R
BOOTHVILLE     CLEAR     67  56  67 N6        30.07R
BELLE CHASSE   PTCLDY    57  51  80 CALM      30.07R
BOGALUSA*      FAIR      59  48  67 CALM      30.10R
NEW ROADS*     FAIR      60  52  73 CALM      30.10S
GONZALES*      FAIR      57  56  95 CALM      30.09R
HAMMOND*       CLEAR     57  50  77 CALM      30.11R
HOUMA*         CLEAR     62  51  66 NW3       30.08R
PORT FOURCHON* CLEAR     70  52  52 N7        30.11R

$$

LAZ041-044-053-054-250200-
SOUTHWEST LOUISIANA

CITY           SKY/WX    TMP DP  RH WIND       PRES   REMARKS
LAKE CHARLES   CLEAR     61  51  70 CALM      30.11R
LAFAYETTE      PTCLDY    64  51  62 CALM      30.10R
PATTERSON      CLEAR     59  55  88 CALM      30.12R
SALT POINT       N/A     67  53  61 CALM      30.09R
NEW IBERIA     PTCLDY    61  53  75 CALM      30.11R
CHENAULT AIRPK NOT AVBL

$$

LAZ027-028-250200-
CENTRAL LOUISIANA

CITY           SKY/WX    TMP DP  RH WIND       PRES   REMARKS
FORT POLK      CLEAR     60  54  79 S1        30.11R
ALEXANDRIA INT PTCLDY    59  54  83 CALM      30.10R
ALEXANDRIA     CLEAR     55  54  96 CALM      30.12R

$$

LAZ001-002-250200-
NORTHWEST LOUISIANA

CITY           SKY/WX    TMP DP  RH WIND       PRES   REMARKS
SHREVEPORT     MOCLDY    65  56  72 CALM      30.11R
BARKSDALE AFB  MOCLDY    62  58  87 SE2       30.12R
DTN SHREVEPORT PTCLDY    64  57  78 CALM      30.12R

$$

LAZ014-016-250200-
NORTHEAST LOUISIANA

CITY           SKY/WX    TMP DP  RH WIND       PRES   REMARKS
MONROE         CLEAR     58  53  84 CALM      30.13R
TALLULAH       CLEAR     52  48  86 CALM      30.11R

$$




USA.gov is the U.S. government's official web portal to all federal, state and local government web resources and services.